Theta_e
312 312 310 308 307 304 303 304 304 305 306 306 307 308 310 311 312 311 312 315 317 318 321 323 326 327 329 329 329 331 331 331 331 332 330 332 331 329 327 325 321 315 310
311 309 307 305 302 301 301 302 303 304 305 306 308 309 311 312 313 312 312 313 315 318 321 323 325 325 327 328 328 330 331 331 331 329 330 329 329 326 324 317 315 311 308
308 305 302 301 300 300 302 302 303 304 305 307 308 310 312 314 314 314 313 313 314 318 320 323 325 326 325 328 330 331 332 331 330 326 329 327 326 322 315 310 310 308 307
304 301 300 300 300 301 302 302 303 305 306 308 311 314 316 317 317 316 316 315 315 318 320 322 325 327 328 330 332 332 332 330 328 329 326 323 319 312 310 308 306 308 306
302 300 300 300 301 301 301 302 303 305 308 311 315 319 320 320 319 318 317 317 317 317 321 324 325 326 330 332 332 331 331 329 328 324 322 318 314 310 309 309 306 306 310
301 300 300 301 300 300 302 303 304 306 308 311 315 320 320 318 318 318 317 318 318 321 323 324 325 328 328 328 328 329 328 327 324 322 317 313 311 312 310 306 308 308 310
300 299 300 299 300 301 302 303 304 305 308 310 313 319 320 320 322 321 318 319 320 322 324 326 326 327 327 327 325 320 317 315 315 314 313 310 306 306 306 307 309 308 308
299 299 299 299 300 301 302 303 304 305 306 308 309 313 317 320 323 323 323 321 321 321 321 323 322 321 319 319 315 313 313 312 310 308 307 307 307 307 308 308 307 307 308
298 297 298 299 300 300 301 302 303 305 305 306 307 309 310 310 312 313 319 319 318 316 314 313 311 311 310 311 314 312 308 307 308 308 308 308 307 307 307 307 306 306 306
297 297 298 299 300 300 301 302 301 303 303 304 304 305 306 307 311 311 310 312 313 309 308 308 308 307 305 305 307 309 309 309 309 308 308 307 307 307 307 307 306 306 306
297 298 298 299 299 300 301 302 302 302 302 302 303 303 305 306 307 309 307 307 307 306 304 304 305 306 306 308 309 310 310 309 309 309 308 307 307 307 307 307 306 306 306
297 298 298 299 299 300 301 302 302 301 301 301 301 302 302 302 303 303 303 303 303 304 306 306 307 307 308 309 309 309 309 309 308 307 307 307 307 308 307 306 306 306 306
297 298 298 299 300 300 301 301 300 300 300 300 300 301 302 303 303 303 304 304 305 305 306 306 307 307 308 308 308 308 308 308 307 307 307 308 307 306 305 305 305 305 305
297 297 298 298 299 300 298 299 299 299 299 300 300 300 301 301 302 302 302 304 304 305 306 305 306 307 307 307 308 307 307 307 307 306 306 306 305 305 305 305 303 303 304
298 298 299 300 300 299 299 299 299 299 299 299 299 299 300 300 299 300 302 303 304 305 305 304 305 305 306 306 306 305 305 305 305 305 305 305 305 304 304 303 303 304 304
298 296 296 296 297 297 297 297 298 297 299 298 298 299 299 299 298 299 299 300 300 300 301 302 302 303 303 304 304 303 303 303 303 303 304 304 303 303 303 304 303 303 302
295 295 296 296 296 297 297 297 298 297 297 298 298 298 298 298 298 298 298 298 299 300 302 303 302 301 301 301 302 301 302 302 302 302 302 302 303 303 304 304 303 302 300
297 297 297 297 297 297 298 298 297 297 297 297 297 298 297 297 297 297 297 297 297 297 299 301 302 301 300 300 300 300 301 301 302 302 303 303 304 304 304 303 303 301 299
297 297 297 297 297 297 298 298 297 297 297 297 297 297 297 296 296 295 295 294 294 294 295 297 299 300 301 300 300 300 301 302 302 303 304 304 304 304 304 302 301 299 299
297 297 297 296 297 297 297 297 297 296 296 296 295 295 295 295 294 292 292 292 294 295 295 296 296 297 299 299 300 300 301 302 304 304 304 304 304 304 302 300 299 298 298
296 297 296 296 297 297 297 297 296 296 296 295 295 294 293 292 291 291 293 294 295 295 296 297 299 299 299 300 300 300 301 302 304 304 304 305 303 301 300 298 298 298 298
296 296 297 297 297 297 297 297 296 296 295 295 294 293 292 291 290 290 292 294 295 296 296 297 298 299 299 300 300 301 302 304 304 305 304 303 301 298 297 296 297 298 298
297 297 297 297 297 297 297 296 296 296 295 294 294 293 292 290 289 291 293 294 295 296 297 298 298 298 298 299 300 303 304 304 304 304 302 300 299 297 295 295 296 297 298
298 297 297 296 296 296 296 296 296 296 295 295 294 293 292 290 289 290 293 295 296 297 297 297 298 298 299 300 301 303 303 303 303 302 301 299 297 295 295 295 296 296 298
297 297 297 297 296 296 296 296 296 295 295 294 294 292 291 289 289 290 292 295 296 297 297 297 298 298 299 301 303 304 303 303 302 301 300 298 297 296 295 295 296 297 297
297 297 296 296 295 295 296 296 295 295 295 294 293 291 290 289 289 290 292 294 296 297 297 297 297 298 300 302 303 303 303 302 301 301 300 299 297 296 295 295 296 297 298
Wind_Speed
48 52 56 54 47 41 37 35 36 33 30 29 31 29 29 28 26 26 25 24 26 31 33 34 34 30 25 27 23 22 25 27 28 21 19 20 18 18 18 17 13 10 11
52 54 49 41 38 37 36 34 33 32 32 30 28 28 28 27 25 24 25 26 23 19 22 24 25 26 25 20 23 22 23 26 24 16 15 19 18 20 17 14 10 9 5
51 45 39 36 35 36 34 34 33 31 30 28 28 28 28 27 26 25 21 21 23 24 25 23 22 20 23 23 21 20 23 21 16 12 15 16 17 17 13 10 9 9 8
42 37 35 35 33 32 32 31 30 28 27 25 24 23 24 23 22 20 21 20 18 16 17 17 18 17 18 19 19 21 21 16 11 11 18 19 18 15 12 9 9 7 3
36 33 33 31 30 31 31 29 27 24 20 19 20 18 14 14 14 14 16 15 13 11 10 11 12 13 12 13 17 18 16 11 12 17 17 19 18 15 10 9 6 3 3
32 31 29 29 31 30 29 26 24 21 18 17 15 9 7 6 4 7 12 11 11 11 13 12 10 11 10 12 13 12 8 9 16 15 16 15 11 8 5 3 2 2 11
28 26 27 29 28 27 25 24 22 20 17 15 11 5 4 7 7 10 13 12 10 17 16 16 15 16 16 13 13 17 17 14 10 9 10 9 7 5 5 4 3 3 3
25 26 26 27 25 24 23 22 21 20 20 18 15 10 5 3 3 10 14 15 19 22 24 22 21 19 17 17 18 17 15 15 16 16 15 14 11 10 7 3 1 2 4
27 26 25 23 21 21 21 20 19 19 20 19 19 16 13 12 10 17 18 27 27 26 26 23 22 21 17 15 17 23 24 26 25 23 21 19 14 12 11 7 4 5 3
25 23 22 19 18 19 18 19 20 22 23 22 23 23 19 17 14 26 32 31 30 29 26 25 24 25 25 25 27 28 28 25 21 20 19 17 14 12 11 11 11 9 4
22 19 19 19 16 17 17 19 23 27 29 31 33 31 30 29 26 25 30 34 34 34 34 32 30 27 25 24 23 22 21 17 15 15 14 11 8 6 5 6 7 7 6
19 18 17 16 16 16 17 21 25 31 36 39 41 41 40 41 38 36 34 36 36 39 37 33 29 27 25 21 21 20 19 19 17 15 10 7 6 6 6 7 9 7 7
17 18 18 18 18 19 21 25 32 37 39 38 38 36 34 32 34 33 33 33 33 32 30 28 24 24 26 25 23 20 18 14 11 11 11 10 7 6 5 7 9 7 9
19 20 23 27 27 28 35 35 35 36 35 35 35 34 30 29 29 26 24 23 23 24 27 26 22 21 20 19 16 17 16 13 10 11 9 6 4 5 9 10 9 9 7
25 27 31 33 34 35 36 37 36 37 34 34 33 29 28 29 27 26 27 28 28 26 24 20 20 18 18 17 16 16 13 9 7 5 3 3 5 6 8 10 10 12 12
34 38 35 35 36 36 34 32 28 27 31 31 31 32 31 26 23 22 23 23 20 17 23 27 27 24 20 17 17 16 14 10 7 5 5 5 5 6 8 9 10 11 9
34 31 30 30 29 28 27 29 31 34 34 30 27 24 23 20 18 17 17 18 19 18 26 23 24 25 25 20 13 15 13 11 10 9 8 7 5 7 9 11 12 12 9
24 24 24 24 25 24 25 26 25 25 25 27 23 20 19 18 15 13 13 13 18 20 22 23 21 19 19 19 18 15 13 11 9 8 6 7 8 9 11 11 11 10 8
16 16 16 21 23 23 23 21 20 20 21 20 17 18 16 14 17 19 20 23 22 21 16 14 14 13 13 13 14 14 13 12 9 9 10 11 12 13 10 8 8 6 5
10 14 17 19 23 23 22 22 22 23 23 24 23 20 15 13 22 23 23 22 22 21 19 18 14 10 9 11 13 14 12 11 12 13 14 13 13 12 10 7 6 5 4
7 9 15 21 21 19 20 21 20 20 22 22 22 20 20 24 24 25 25 24 22 22 21 20 20 19 16 13 13 13 13 12 13 14 14 14 12 10 9 6 3 3 4
26 24 19 17 18 19 18 15 16 18 20 21 22 22 21 23 23 23 23 22 22 23 22 20 19 18 16 14 14 14 14 14 14 14 13 12 10 9 7 4 1 2 4
17 17 16 16 16 16 16 16 17 19 21 21 21 22 23 24 24 24 23 21 21 22 22 21 20 18 17 18 17 18 17 16 16 15 14 12 11 9 7 5 3 4 5
8 12 15 15 14 15 16 16 17 17 17 17 17 19 21 22 23 23 21 20 20 21 21 21 21 22 21 20 18 18 19 18 17 16 15 14 12 10 7 6 5 7 8
12 11 10 10 10 12 12 14 13 12 13 15 17 19 21 21 22 22 20 20 20 21 21 23 24 23 20 21 21 20 19 18 17 17 18 17 15 12 10 10 9 9 10
10 8 8 8 8 8 9 10 10 10 13 15 18 20 20 21 21 21 21 20 20 20 21 22 22 22 21 20 21 21 21 20 20 20 20 19 18 16 13 12 12 11 12
Wind_Direction
324 322 320 318 317 318 315 311 306 305 302 297 292 287 286 281 278 273 269 264 258 254 247 250 256 257 266 263 267 263 257 249 251 251 262 252 244 232 228 222 229 243 259
326 325 323 324 324 323 321 317 313 308 305 301 294 289 283 278 275 270 258 250 253 253 244 245 251 251 259 270 258 261 251 246 245 244 259 231 220 219 217 221 239 274 243
329 328 330 330 329 322 322 321 317 311 306 300 295 289 285 279 273 268 260 255 251 252 244 244 248 248 250 260 256 251 241 236 229 223 268 218 209 206 212 215 239 247 246
334 335 336 333 333 335 333 329 325 319 312 307 302 297 292 289 281 261 251 249 252 252 248 250 255 258 257 257 247 235 221 204 232 219 202 194 192 185 204 212 228 246 315
338 339 340 343 344 345 340 339 338 335 330 323 317 311 303 292 276 251 238 227 238 242 236 252 256 264 248 239 233 221 200 199 199 191 183 183 186 188 215 242 244 238 204
344 344 351 351 353 347 349 350 349 349 342 333 326 321 304 305 267 237 208 208 212 215 235 222 232 209 202 196 184 181 185 179 190 186 176 183 193 221 219 188 223 276 173
349 355 359 359 356 358 359 1 1 6 359 357 359 349 317 308 302 175 175 203 221 189 210 192 188 167 164 163 155 144 135 136 146 168 161 149 142 164 187 171 194 214 210
0 4 4 1 3 4 8 12 19 26 28 29 35 42 49 15 287 175 176 188 184 165 149 144 140 134 133 135 135 132 129 126 124 121 114 100 97 94 102 144 211 211 182
5 3 4 8 8 13 18 23 31 37 42 44 51 53 62 87 122 137 150 142 131 127 123 120 121 122 123 129 134 125 121 118 113 104 91 78 80 81 66 53 96 95 161
2 4 8 13 16 22 30 37 49 55 58 60 64 65 71 90 119 126 120 122 121 115 112 111 111 112 115 120 122 120 116 111 107 103 92 77 84 72 65 54 53 49 23
10 14 16 21 34 38 47 58 68 72 74 74 74 76 80 84 92 102 106 107 106 107 105 105 103 103 110 115 111 110 107 107 106 104 99 90 86 68 42 41 27 11 345
20 30 33 35 42 49 63 72 79 81 80 81 80 80 81 84 85 88 92 96 102 103 101 98 95 93 93 101 106 106 108 109 105 102 99 88 76 51 49 6 349 323 308
37 47 52 53 60 65 71 82 86 84 81 76 76 78 81 83 88 90 94 98 98 97 96 94 97 98 98 97 100 100 103 107 102 91 93 89 72 47 24 2 359 337 294
58 67 73 75 74 79 85 80 81 79 77 77 75 74 77 80 83 84 86 92 95 98 98 98 100 101 103 107 107 101 92 92 94 88 84 70 42 22 352 347 348 338 331
77 80 82 81 83 85 87 85 83 80 77 74 66 70 70 70 64 80 92 97 100 104 102 94 91 95 94 95 98 97 92 85 76 64 38 13 3 355 340 343 340 336 335
85 84 86 86 84 83 81 80 76 71 77 75 76 80 80 82 84 88 93 96 98 102 94 86 80 78 79 85 86 81 73 64 69 74 61 47 18 356 339 334 333 339 342
77 72 72 73 70 69 64 62 69 76 75 78 79 80 84 90 92 95 98 100 94 88 86 88 82 74 66 69 86 76 74 67 57 54 42 23 355 331 342 349 355 358 4
66 67 68 67 68 70 72 76 80 83 81 79 80 78 74 76 79 82 89 99 87 85 84 81 81 81 72 71 74 71 69 58 54 46 24 2 1 6 358 357 1 10 32
70 73 78 74 74 73 77 80 74 76 76 76 79 76 72 66 64 63 63 67 70 71 76 83 84 82 76 62 63 59 59 49 49 37 33 19 12 5 356 357 5 21 42
75 72 69 86 86 79 74 73 74 74 72 68 65 66 70 70 62 60 62 65 65 65 66 67 70 77 77 63 54 57 51 45 40 34 24 18 5 0 0 6 21 50 63
74 100 87 99 87 78 81 78 74 71 71 69 64 55 56 62 63 63 64 64 65 62 62 66 65 65 68 68 61 53 41 35 27 20 17 15 8 9 10 12 40 62 89
91 101 102 90 84 80 82 78 75 74 70 68 64 59 58 62 62 62 61 61 61 59 57 59 61 60 59 61 60 43 37 32 23 22 15 8 8 8 4 10 48 93 117
99 97 97 94 92 89 83 78 76 73 74 72 68 64 60 60 60 59 59 60 60 59 59 59 58 53 50 55 50 41 33 29 26 21 12 11 14 17 35 44 85 130 132
80 96 101 99 94 86 90 84 81 81 76 70 61 55 54 55 58 57 57 57 58 59 59 57 54 53 51 50 47 39 33 33 29 22 21 23 26 33 55 63 89 126 124
107 106 104 107 97 97 95 94 87 76 71 68 63 58 57 59 59 57 56 56 57 58 59 58 58 51 49 48 46 41 40 35 31 28 30 32 34 46 60 70 83 112 126
105 105 101 104 105 99 95 90 82 75 68 64 60 59 60 61 60 59 57 56 57 58 59 59 57 50 48 49 44 36 39 40 36 35 35 38 45 55 67 74 85 103 117